FENGYUN 1C DEB, 32105

Orbit data source: Space-Track

FENGYUN 1C DEB, 32105 is space debris in LEO originally from a launch on Mon, 10 May 1999 UTC launched from the Taiyaun Space Center, China (TSC). Fengyun 1C debris stems from the Chinese weather satellite Fengyun-1C, which was intentionally destroyed by a Chinese anti-satellite missile in 2007. This event dramatically increased the amount of space debris, with thousands of trackable fragments posing hazards to satellites and human spaceflight. The Fengyun 1C debris cloud has become a focal point in discussions about space sustainability and the need for international regulations to prevent the creation of new debris.

Loading next visibility...
Identifier
32105, 1999-025CQX
Orbit
LEO
Country
Flag of CNCN / PRC
Related business
Manufacturer
Unknown
Mission
Spacecraft
Bus & Motor
Unknown
Mass
Unknown
Launch date (UTC)
1999-05-10 (26 years ago)
Launch vehicle
Unknown
Launch site
Taiyaun Space Center, China (TSC)
Object type
Payload
Rocket body
Debris
Shape & HBR
Unknown shape, 0.1 m
Radar Cross Section
Small (<0.1 m²)

Expand to show TLE details & history
Last TLE update: 2 days ago

TLE from 2 days ago
0 FENGYUN 1C DEB
1 32105U 99025CQX 25309.11925836  .00001481  00000-0  18099-2 0  9993
2 32105 103.4599 288.3188 0393027 153.9173 208.2334 13.40056428592073
Epoch: 2025-11-05T02:51Z
TLE epoch observation values (Epoch: 2025-11-05T02:51:43.922Z)
Latitude
0.00004°
Longitude
-159.21072°
Altitude
1,373.458 km
Speed
7.046 km/s
True Right ascension
19h 13m 16s
True Declination
0° 00' 00"
Sunlit
Object was in daylight at epoch
Visualization orbit readout
Latitude
Unknown
Longitude
Unknown
Altitude
Unknown
Speed
Unknown
Apparent Right ascension
Unknown
Apparent Declination
Unknown
Sunlit
N/A
Visualization observer readout
Local Sidereal Time
11:08:24
Azimuth
Unknown
Elevation
Unknown
Doppler factor
Unknown
Orbital elements
Apogee altitude
1,400.776 km
Perigee altitude
812.435 km
Semi-major axis
7,484.742 km
Eccentricity
0.0393
Inclination
103.4599°
RAAN
288.3188°
Arg. of periapsis
153.9173°
True anomaly
206.19179°
Mean anomaly
208.2334°
Eccentric anomaly
207.20393°
Mean motion
3.3518 °/min
Orbital period
107.41 mins
BSTAR
0.0018099
Loading maneuver chart data...
Computing Atmospheric mass density...

Documentation

Showing up to 5 results
|